Voltar ao catálogo

STARLINK-32324

AtivoComunicaçõesVLEO
NORAD 61863·PAYLOAD·🇺🇸 United States

Lançado Nov 7, 2024 de Cape Canaveral Space Force Station

Loading…

Próximas Passagens (próximas 24 horas)

TLE

AtualizadoSource: CelesTrak SupGP

Época: Sep 15, 2026, 02:36 UTC

1 61863C 24202U   26258.10881944 -.00037803  00000+0 -13694-2 0  2587
2 61863  43.0023 248.4708 0001438 268.5625 115.3562 15.27593579    18

Acompanhe STARLINK-32324 em tempo real com AllMySat

Download on the App Store